Location: Bukit Setapoh
(2.2500°N, 113.8000°E)
Time: 23:12:21
(UTC+00:00)

Cosmos 1408 - Pass Details

Date: 25 July 2021
Orbit: 467 x 489 km, 82.6° (Epoch: 21 September)

Event Time Altitude Azimuth Distance (km) Brightness Sun altitude
Exits shadow 11:29:26 11° 158° (SSE) 1,640 4.8 -12.9°
Maximum altitude 11:32:39 32° 94° (E) 850 3.3 -13.6°
Drops below altitude 10° 11:35:56 10° 29° (NNE) 1,665 5.2 -14.4°
Sets 11:38:10 0° 19° (NNE) 2,539 6.2 -14.9°
